FW2111 Weather Reports


Display with metric or nautical units.
time (UTC)temp
F
wind
direction
speed
MPH
gust
MPH
rain 1hr
in
rain 24hr
in
rain mn
in
humidity
%
barometer
mb
20260903121220 65 69 5.0 10.0 0.00 0.00 0.00 62 1015.2
20260903120655 65 69 4.0 12.0 0.00 0.00 0.00 63 1015.1
20260903120128 65 61 4.0 12.0 0.00 0.00 0.00 63 1015.2
20260903115625 65 69 5.0 12.0 0.00 0.00 0.00 63 1015.0
20260903115119 65 51 4.0 9.0 0.00 0.00 0.00 63 1014.9
20260903114551 65 59 4.0 9.0 0.00 0.00 0.00 63 1014.9
20260903114049 65 0 4.0 8.0 0.00 0.00 0.00 63 1014.8
20260903113521 64 27 4.0 9.0 0.00 0.00 0.00 63 1014.9
20260903113019 64 42 3.0 7.0 0.00 0.00 0.00 63 1014.8
20260903112451 64 43 4.0 10.0 0.00 0.00 0.00 63 1014.9
20260903111949 64 23 3.0 10.0 0.00 0.00 0.00 63 1014.9
20260903111424 64 60 3.0 8.0 0.00 0.00 0.00 63 1014.8
20260903110919 64 36 4.0 8.0 0.00 0.00 0.00 63 1014.9
20260903110418 64 18 4.0 8.0 0.00 0.00 0.00 63 1015.0
20260903105848 64 30 3.0 7.0 0.00 0.00 0.00 63 1015.1
20260903105616 64 53 3.0 7.0 0.00 0.00 0.00 63 1015.1
20260903104841 64 51 3.0 7.0 0.00 0.00 0.00 62 1015.0
20260903104337 65 38 3.0 7.0 0.00 0.00 0.00 62 1015.0
20260903103835 65 71 2.0 7.0 0.00 0.00 0.00 62 1015.0
20260903103307 65 78 2.0 7.0 0.00 0.00 0.00 62 1014.9
20260903102805 65 72 2.0 7.0 0.00 0.00 0.00 62 1014.9
20260903102237 65 50 3.0 7.0 0.00 0.00 0.00 62 1014.9
20260903101735 65 59 2.0 6.0 0.00 0.00 0.00 62 1014.9
20260903101207 65 23 2.0 5.0 0.00 0.00 0.00 62 1014.8
20260903100705 65 55 2.0 5.0 0.00 0.00 0.00 61 1014.8
20260903100137 65 34 2.0 4.0 0.00 0.00 0.00 61 1014.7
20260903095635 65 50 2.0 7.0 0.00 0.00 0.00 61 1014.8
20260903095109 65 45 2.0 7.0 0.00 0.00 0.00 61 1014.7
20260903094813 65 48 2.0 5.0 0.00 0.00 0.00 61 1014.5
20260903094017 65 32 3.0 7.0 0.00 0.00 0.00 61 1014.6
20260903093519 65 20 3.0 7.0 0.00 0.00 0.00 61 1014.5
20260903092953 65 19 2.0 5.0 0.00 0.00 0.00 61 1014.4
20260903092929 65 21 2.0 5.0 0.00 0.00 0.00 61 1014.5
20260903091927 65 62 2.0 7.0 0.00 0.00 0.00 62 1014.5
20260903091424 65 24 2.0 7.0 0.00 0.00 0.00 62 1014.4
20260903090900 65 23 2.0 5.0 0.00 0.00 0.00 62 1014.4
20260903090336 65 29 2.0 7.0 0.00 0.00 0.00 62 1014.4
20260903085815 65 18 2.0 7.0 0.00 0.00 0.00 62 1014.4
20260903085258 65 55 2.0 6.0 0.00 0.00 0.00 62 1014.3
20260903084759 65 16 2.0 5.0 0.00 0.00 0.00 62 1014.3
20260903084239 65 23 2.0 7.0 0.00 0.00 0.00 62 1014.4
20260903083742 65 15 3.0 7.0 0.00 0.00 0.00 62 1014.4
20260903083444 65 26 3.0 5.0 0.00 0.00 0.00 62 1014.4
20260903082711 65 22 3.0 5.0 0.00 0.00 0.00 62 1014.5
20260903082444 66 33 3.0 6.0 0.00 0.00 0.00 62 1014.6
20260903081649 66 5 2.0 7.0 0.00 0.00 0.00 62 1014.7
20260903081147 66 40 2.0 7.0 0.00 0.00 0.00 62 1014.7
20260903080622 66 24 3.0 7.0 0.00 0.00 0.00 62 1014.6
20260903080054 66 22 3.0 8.0 0.00 0.00 0.00 62 1014.6
20260903075533 66 15 3.0 8.0 0.00 0.00 0.00 62 1014.6
20260903075033 66 32 3.0 8.0 0.00 0.00 0.00 62 1014.6
20260903074807 66 41 3.0 8.0 0.00 0.00 0.00 62 1014.7
20260903074018 66 23 2.0 8.0 0.00 0.00 0.00 62 1014.6
20260903073507 66 53 2.0 8.0 0.00 0.00 0.00 62 1014.7
20260903073235 66 28 3.0 8.0 0.00 0.00 0.00 62 1014.7
20260903072503 66 54 3.0 8.0 0.00 0.00 0.00 63 1014.7
20260903072003 66 11 3.0 6.0 0.00 0.00 0.00 63 1014.7
20260903071503 65 57 3.0 6.0 0.00 0.00 0.00 63 1014.8
20260903070939 65 24 3.0 7.0 0.00 0.00 0.00 63 1014.9
20260903070705 65 20 3.0 8.0 0.00 0.00 0.00 63 1014.9
20260903065932 66 34 3.0 7.0 0.00 0.00 0.00 63 1014.9
20260903065406 66 67 3.0 9.0 0.00 0.00 0.00 62 1015.0
20260903064842 66 15 3.0 9.0 0.00 0.00 0.00 62 1015.1
20260903064314 66 5 3.0 9.0 0.00 0.00 0.00 62 1015.0
20260903063810 66 51 3.0 9.0 0.00 0.00 0.00 61 1015.1
20260903063307 66 40 3.0 8.0 0.00 0.00 0.00 61 1015.1
20260903062743 67 20 3.0 8.0 0.00 0.00 0.00 60 1015.1
20260903062719 67 29 2.0 5.0 0.00 0.00 0.00 60 1015.1
20260903061716 67 51 2.0 6.0 0.00 0.00 0.00 59 1015.1
20260903061150 67 59 3.0 6.0 0.00 0.00 0.00 59 1015.1
20260903060647 67 53 2.0 6.0 0.00 0.00 0.00 58 1015.1
20260903060121 67 11 2.0 5.0 0.00 0.00 0.00 58 1015.2
20260903055555 67 53 2.0 5.0 0.00 0.00 0.00 58 1015.1
20260903055051 67 12 2.0 5.0 0.00 0.00 0.00 58 1015.1
20260903054525 68 11 2.0 4.0 0.00 0.00 0.00 58 1015.1
20260903054024 68 34 3.0 6.0 0.00 0.00 0.00 57 1015.0
20260903053456 68 29 3.0 7.0 0.00 0.00 0.00 57 1015.0
20260903052954 69 65 3.0 6.0 0.00 0.00 0.00 57 1015.0
20260903052705 69 0 3.0 7.0 0.00 0.00 0.00 57 1015.0
20260903051858 69 26 3.0 7.0 0.00 0.00 0.00 57 1014.9
20260903051355 69 28 3.0 7.0 0.00 0.00 0.00 57 1014.8
20260903050826 69 5 3.0 7.0 0.00 0.00 0.00 57 1015.0
20260903050326 68 35 2.0 5.0 0.00 0.00 0.00 57 1014.9
20260903045824 68 28 2.0 5.0 0.00 0.00 0.00 58 1015.0
20260903045301 68 5 2.0 5.0 0.00 0.00 0.00 59 1015.0
20260903044759 67 12 1.0 5.0 0.00 0.00 0.00 60 1015.0
20260903044255 67 11 1.0 4.0 0.00 0.00 0.00 61 1015.0
20260903044000 67 228 0.0 3.0 0.00 0.00 0.00 61 1014.9
20260903043204 67 226 0.0 3.0 0.00 0.00 0.00 61 1014.9
20260903042909 67 226 1.0 3.0 0.00 0.00 0.00 60 1014.8
20260903042110 68 226 1.0 3.0 0.00 0.00 0.00 59 1014.9
20260903041608 69 313 1.0 7.0 0.00 0.00 0.00 57 1014.9
20260903041042 69 355 2.0 3.0 0.00 0.00 0.00 57 1014.8
20260903040516 69 344 1.0 4.0 0.00 0.00 0.00 58 1014.9
20260903035949 68 0 1.0 4.0 0.00 0.00 0.00 59 1014.7
20260903035424 67 339 0.0 2.0 0.00 0.00 0.00 61 1014.8
20260903034858 66 338 1.0 2.0 0.00 0.00 0.00 63 1014.7
20260903034354 65 296 1.0 4.0 0.00 0.00 0.00 64 1014.7
20260903034124 65 291 2.0 3.0 0.00 0.00 0.00 65 1014.7
20260903033326 65 327 2.0 4.0 0.00 0.00 0.00 65 1014.7
20260903032820 65 297 3.0 3.0 0.00 0.00 0.00 66 1014.8
20260903032319 65 291 3.0 4.0 0.00 0.00 0.00 66 1014.8
20260903031750 65 294 2.0 4.0 0.00 0.00 0.00 66 1014.8
20260903031247 65 302 2.0 3.0 0.00 0.00 0.00 66 1014.8
20260903030722 65 302 2.0 3.0 0.00 0.00 0.00 65 1014.9
20260903030214 65 304 2.0 3.0 0.00 0.00 0.00 65 1014.7
20260903025713 66 304 3.0 4.0 0.00 0.00 0.00 65 1014.7
20260903025147 66 302 3.0 4.0 0.00 0.00 0.00 64 1014.7
20260903024620 66 301 3.0 4.0 0.00 0.00 0.00 63 1014.7
20260903024052 67 300 3.0 4.0 0.00 0.00 0.00 63 1014.6
20260903023550 66 299 2.0 3.0 0.00 0.00 0.00 63 1014.6
20260903023023 66 297 2.0 3.0 0.00 0.00 0.00 64 1014.5
20260903022520 67 298 2.0 3.0 0.00 0.00 0.00 63 1014.5
20260903021952 67 273 2.0 3.0 0.00 0.00 0.00 63 1014.4
20260903021428 68 261 2.0 3.0 0.00 0.00 0.00 61 1014.4
20260903020900 68 261 2.0 3.0 0.00 0.00 0.00 61 1014.5
20260903020357 67 261 2.0 3.0 0.00 0.00 0.00 62 1014.4
20260903015854 68 232 2.0 3.0 0.00 0.00 0.00 61 1014.3
20260903015622 68 226 2.0 3.0 0.00 0.00 0.00 62 1014.3
20260903015056 68 226 2.0 3.0 0.00 0.00 0.00 61 1014.2
20260903014320 68 226 2.0 3.0 0.00 0.00 0.00 62 1014.3
20260903013818 68 226 2.0 2.0 0.00 0.00 0.00 62 1014.1
20260903013314 68 225 1.0 2.0 0.00 0.00 0.00 62 1014.2
20260903012813 68 225 1.0 2.0 0.00 0.00 0.00 61 1014.2
20260903012515 68 225 1.0 2.0 0.00 0.00 0.00 60 1014.0
20260903011742 68 225 1.0 3.0 0.00 0.00 0.00 60 1013.9
20260903011238 68 225 2.0 3.0 0.00 0.00 0.00 61 1013.8
20260903010735 69 225 2.0 3.0 0.00 0.00 0.00 62 1013.9
20260903010209 69 225 1.0 3.0 0.00 0.00 0.00 61 1013.8
20260903005706 69 225 1.0 3.0 0.00 0.00 0.00 61 1013.9
20260903005140 69 163 0.0 2.0 0.00 0.00 0.00 61 1013.8
20260903004612 70 163 0.0 1.0 0.00 0.00 0.00 60 1013.9
20260903004108 70 163 0.0 2.0 0.00 0.00 0.00 58 1013.8
20260903003605 70 163 0.0 2.0 0.00 0.00 0.00 57 1013.8
20260903003101 71 163 0.0 2.0 0.00 0.00 0.00 56 1013.6
20260903002537 71 163 1.0 2.0 0.00 0.00 0.00 55 1013.6
20260903002021 71 163 1.0 3.0 0.00 0.00 0.00 57 1013.7
20260903002017 71 163 1.0 2.0 0.00 0.00 0.00 57 1013.7
20260903001014 72 163 1.0 3.0 0.00 0.00 0.00 56 1013.7
20260903000512 72 163 1.0 4.0 0.00 0.00 0.00 56 1013.7
20260903000241 73 163 2.0 4.0 0.00 0.00 0.00 55 1013.7
20260902235508 74 163 2.0 4.0 0.00 0.00 0.00 51 1013.7
20260902235209 76 161 1.0 5.0 0.00 0.00 0.00 49 1013.7
20260902234436 78 161 1.0 5.0 0.00 0.00 0.00 47 1013.6
20260902233908 79 151 1.0 3.0 0.00 0.00 0.00 46 1013.6
20260902233405 81 151 0.0 0.0 0.00 0.00 0.00 46 1013.6
20260902232902 81 151 0.0 2.0 0.00 0.00 0.00 45 1013.7
20260902232334 81 151 0.0 2.0 0.00 0.00 0.00 44 1013.7
20260902231831 81 151 1.0 3.0 0.00 0.00 0.00 44 1013.7
20260902231331 81 151 1.0 3.0 0.00 0.00 0.00 44 1013.7
20260902230828 81 150 1.0 3.0 0.00 0.00 0.00 41 1013.6
20260902230322 81 150 1.0 3.0 0.00 0.00 0.00 42 1013.6
20260902225818 80 155 2.0 5.0 0.00 0.00 0.00 43 1013.6
20260902225252 80 148 2.0 5.0 0.00 0.00 0.00 44 1013.5
20260902224727 80 107 3.0 6.0 0.00 0.00 0.00 44 1013.4
20260902224203 80 110 3.0 5.0 0.00 0.00 0.00 44 1013.4
20260902223700 80 129 3.0 6.0 0.00 0.00 0.00 43 1013.5
20260902223201 80 96 3.0 7.0 0.00 0.00 0.00 41 1013.4
20260902222650 80 90 2.0 7.0 0.00 0.00 0.00 42 1013.4
20260902222148 80 71 1.0 4.0 0.00 0.00 0.00 42 1013.5
20260902221647 79 91 1.0 4.0 0.00 0.00 0.00 42 1013.5
20260902221150 79 90 2.0 6.0 0.00 0.00 0.00 42 1013.6
20260902220858 79 49 2.0 5.0 0.00 0.00 0.00 42 1013.6
20260902220336 79 81 3.0 5.0 0.00 0.00 0.00 43 1013.6
20260902215606 79 122 2.0 4.0 0.00 0.00 0.00 43 1013.6
20260902215043 78 92 2.0 4.0 0.00 0.00 0.00 43 1013.6
20260902214541 78 57 2.0 4.0 0.00 0.00 0.00 43 1013.7
20260902214042 78 146 2.0 7.0 0.00 0.00 0.00 44 1013.7
20260902213540 78 155 3.0 7.0 0.00 0.00 0.00 44 1013.7
20260902213040 77 150 3.0 8.0 0.00 0.00 0.00 44 1013.7
20260902212540 77 107 4.0 8.0 0.00 0.00 0.00 44 1013.5
20260902212024 77 102 4.0 8.0 0.00 0.00 0.00 42 1013.6
20260902211729 78 104 2.0 8.0 0.00 0.00 0.00 44 1013.5
20260902211231 78 118 3.0 8.0 0.00 0.00 0.00 45 1013.6
20260902210444 78 94 3.0 8.0 0.00 0.00 0.00 42 1013.6
20260902205941 79 127 3.0 7.0 0.00 0.00 0.00 44 1013.6
20260902205443 78 135 3.0 7.0 0.00 0.00 0.00 46 1013.5
20260902204935 78 101 4.0 7.0 0.00 0.00 0.00 45 1013.6
20260902204433 77 96 3.0 7.0 0.00 0.00 0.00 46 1013.5
20260902203933 77 121 2.0 5.0 0.00 0.00 0.00 47 1013.6
20260902203419 76 94 3.0 7.0 0.00 0.00 0.00 49 1013.8
20260902202918 76 102 4.0 7.0 0.00 0.00 0.00 48 1013.8
20260902202356 76 153 4.0 8.0 0.00 0.00 0.00 47 1013.8
20260902201833 76 137 4.0 8.0 0.00 0.00 0.00 47 1013.6
20260902201308 76 101 5.0 9.0 0.00 0.00 0.00 46 1013.8
20260902201037 77 97 4.0 9.0 0.00 0.00 0.00 44 1013.9
20260902200519 78 116 3.0 7.0 0.00 0.00 0.00 43 1013.8
20260902200020 77 142 3.0 7.0 0.00 0.00 0.00 46 1013.9
20260902195248 76 136 3.0 7.0 0.00 0.00 0.00 46 1014.0
20260902194725 76 159 3.0 7.0 0.00 0.00 0.00 48 1013.9
20260902194202 76 115 3.0 7.0 0.00 0.00 0.00 46 1014.0
20260902193638 76 123 3.0 5.0 0.00 0.00 0.00 49 1014.0
20260902193114 76 129 3.0 6.0 0.00 0.00 0.00 47 1014.0
20260902192616 75 128 3.0 6.0 0.00 0.00 0.00 49 1014.0
20260902192610 75 122 3.0 6.0 0.00 0.00 0.00 48 1014.1
20260902191605 75 99 4.0 8.0 0.00 0.00 0.00 48 1014.0
20260902191103 77 96 3.0 8.0 0.00 0.00 0.00 45 1014.0
20260902190559 78 116 3.0 7.0 0.00 0.00 0.00 48 1014.0
20260902190056 77 130 4.0 7.0 0.00 0.00 0.00 47 1014.1
20260902185802 76 96 4.0 7.0 0.00 0.00 0.00 50 1014.1
20260902185026 77 86 4.0 8.0 0.00 0.00 0.00 46 1014.0
20260902184500 77 103 4.0 8.0 0.00 0.00 0.00 46 1014.0
20260902183955 77 91 3.0 7.0 0.00 0.00 0.00 47 1014.2
20260902183724 76 126 4.0 7.0 0.00 0.00 0.00 48 1014.2
20260902182926 76 127 4.0 8.0 0.00 0.00 0.00 48 1014.2
20260902182359 76 96 4.0 8.0 0.00 0.00 0.00 48 1014.2
20260902181857 76 100 4.0 7.0 0.00 0.00 0.00 49 1014.4
20260902181353 76 95 4.0 6.0 0.00 0.00 0.00 49 1014.3
20260902180851 76 138 3.0 6.0 0.00 0.00 0.00 48 1014.4
20260902180340 76 100 3.0 6.0 0.00 0.00 0.00 49 1014.3
20260902175841 76 128 2.0 5.0 0.00 0.00 0.00 49 1014.4
20260902175315 75 119 3.0 6.0 0.00 0.00 0.00 51 1014.4
20260902174747 75 105 3.0 7.0 0.00 0.00 0.00 50 1014.5
20260902174245 76 119 3.0 7.0 0.00 0.00 0.00 49 1014.5
20260902173718 76 175 3.0 7.0 0.00 0.00 0.00 50 1014.5
20260902173216 76 171 3.0 7.0 0.00 0.00 0.00 50 1014.6
20260902172713 76 107 3.0 6.0 0.00 0.00 0.00 49 1014.6
20260902172417 76 136 2.0 5.0 0.00 0.00 0.00 49 1014.6
20260902171914 76 172 2.0 5.0 0.00 0.00 0.00 48 1014.7
20260902171115 75 90 2.0 5.0 0.00 0.00 0.00 49 1014.6
20260902170613 75 103 2.0 5.0 0.00 0.00 0.00 51 1014.7
20260902170045 74 122 3.0 6.0 0.00 0.00 0.00 50 1014.7
20260902165543 74 103 2.0 6.0 0.00 0.00 0.00 50 1014.8
20260902165017 74 134 2.0 6.0 0.00 0.00 0.00 51 1014.8
20260902164450 73 127 2.0 6.0 0.00 0.00 0.00 54 1014.8
20260902163946 73 130 2.0 5.0 0.00 0.00 0.00 51 1014.9
20260902163715 73 186 2.0 5.0 0.00 0.00 0.00 53 1014.9
20260902162940 72 190 3.0 5.0 0.00 0.00 0.00 54 1015.0
20260902162437 71 180 3.0 5.0 0.00 0.00 0.00 55 1015.0
20260902161922 71 163 3.0 5.0 0.00 0.00 0.00 54 1015.1
20260902161420 71 165 3.0 6.0 0.00 0.00 0.00 57 1015.0
20260902161122 71 142 2.0 6.0 0.00 0.00 0.00 58 1015.0
20260902160350 70 163 3.0 6.0 0.00 0.00 0.00 59 1015.0
20260902160054 69 169 3.0 7.0 0.00 0.00 0.00 59 1014.9
20260902155319 69 180 3.0 7.0 0.00 0.00 0.00 60 1014.8
20260902154751 69 186 4.0 7.0 0.00 0.00 0.00 60 1014.9
20260902154227 69 189 4.0 7.0 0.00 0.00 0.00 60 1014.9
20260902153930 69 202 4.0 6.0 0.00 0.00 0.00 60 1014.7
20260902153157 70 159 3.0 6.0 0.00 0.00 0.00 58 1014.8
20260902152629 70 169 3.0 5.0 0.00 0.00 0.00 58 1014.7
20260902152127 70 177 3.0 6.0 0.00 0.00 0.00 59 1014.8
20260902151622 69 162 3.0 6.0 0.00 0.00 0.00 59 1014.7
20260902151349 69 175 3.0 6.0 0.00 0.00 0.00 59 1014.8
20260902150552 69 167 3.0 8.0 0.00 0.00 0.00 59 1014.7
20260902150321 69 167 4.0 8.0 0.00 0.00 0.00 60 1014.7
20260902145521 70 170 4.0 7.0 0.00 0.00 0.00 58 1014.7
20260902145021 70 161 3.0 6.0 0.00 0.00 0.00 58 1014.9
20260902144515 70 172 3.0 5.0 0.00 0.00 0.00 58 1014.9
20260902144017 71 175 2.0 4.0 0.00 0.00 0.00 58 1014.8
20260902143449 71 174 3.0 5.0 0.00 0.00 0.00 59 1014.9
20260902142947 71 176 3.0 6.0 0.00 0.00 0.00 59 1014.8
20260902142442 71 165 3.0 6.0 0.00 0.00 0.00 58 1014.9
20260902141916 72 147 1.0 3.0 0.00 0.00 0.00 58 1014.8
20260902141351 71 148 1.0 3.0 0.00 0.00 0.00 59 1014.8
20260902141056 71 151 1.0 3.0 0.00 0.00 0.00 60 1014.9
20260902140257 71 181 2.0 4.0 0.00 0.00 0.00 59 1015.0
20260902135754 71 182 2.0 5.0 0.00 0.00 0.00 59 1015.1
20260902135253 71 185 1.0 5.0 0.00 0.00 0.00 57 1015.1
20260902134725 72 186 1.0 3.0 0.00 0.00 0.00 58 1015.2
20260902134455 71 188 1.0 3.0 0.00 0.00 0.00 58 1015.2
20260902133721 71 202 0.0 0.0 0.00 0.00 0.00 59 1015.2
20260902133221 70 203 0.0 0.0 0.00 0.00 0.00 60 1015.2
20260902132717 69 203 0.0 0.0 0.00 0.00 0.00 60 1015.3
20260902132217 69 203 0.0 0.0 0.00 0.00 0.00 61 1015.3
20260902131655 68 203 0.0 0.0 0.00 0.00 0.00 62 1015.4
20260902131157 68 207 0.0 1.0 0.00 0.00 0.00 61 1015.3
20260902130908 68 215 1.0 2.0 0.00 0.00 0.00 62 1015.2
20260902130107 67 215 1.0 4.0 0.00 0.00 0.00 62 1015.2
20260902125553 67 217 0.0 4.0 0.00 0.00 0.00 63 1015.2
20260902125305 67 315 0.0 2.0 0.00 0.00 0.00 63 1015.1
20260902124530 66 315 0.0 2.0 0.00 0.00 0.00 64 1015.0
20260902124026 66 315 1.0 3.0 0.00 0.00 0.00 64 1015.0
20260902123529 65 315 1.0 3.0 0.00 0.00 0.00 64 1015.0
20260902123242 65 313 1.0 4.0 0.00 0.00 0.00 65 1014.9
20260902122512 64 312 2.0 4.0 0.00 0.00 0.00 66 1014.8
20260902122230 64 297 2.0 4.0 0.00 0.00 0.00 66 1014.7